| time (UTC) | temp F | wind direction | speed MPH | gust MPH | rain 1hr in | rain 24hr in | rain mn in | humidity % | barometer mb |
| 20260903050108 | 84 | 139 | 4.0 | 13.0 | 0.00 | 0.00 | 0.00 | 67 | 1010.1 |
| 20260903045549 | 85 | 175 | 2.0 | 14.0 | 0.00 | 0.00 | 0.00 | 67 | 1010.0 |
| 20260903045048 | 85 | 186 | 6.0 | 14.0 | 0.00 | 0.00 | 0.00 | 66 | 1009.9 |
| 20260903044548 | 85 | 158 | 6.0 | 17.0 | 0.00 | 0.00 | 0.00 | 65 | 1009.9 |
| 20260903044048 | 85 | 171 | 8.0 | 17.0 | 0.00 | 0.00 | 0.00 | 65 | 1009.9 |
| 20260903043549 | 85 | 143 | 3.0 | 15.0 | 0.00 | 0.00 | 0.00 | 64 | 1009.9 |
| 20260903043049 | 86 | 143 | 5.0 | 15.0 | 0.00 | 0.00 | 0.00 | 63 | 1009.8 |
| 20260903042548 | 86 | 145 | 6.0 | 14.0 | 0.00 | 0.00 | 0.00 | 63 | 1009.8 |
| 20260903042047 | 86 | 170 | 6.0 | 14.0 | 0.00 | 0.00 | 0.00 | 64 | 1009.9 |
| 20260903041552 | 86 | 124 | 3.0 | 10.0 | 0.00 | 0.00 | 0.00 | 65 | 1009.8 |
| 20260903041047 | 87 | 131 | 3.0 | 10.0 | 0.00 | 0.00 | 0.00 | 64 | 1009.8 |
| 20260903040547 | 87 | 176 | 2.0 | 11.0 | 0.00 | 0.00 | 0.00 | 64 | 1009.7 |
| 20260903040055 | 87 | 188 | 3.0 | 11.0 | 0.00 | 0.00 | 0.00 | 63 | 1009.7 |
| 20260903035546 | 87 | 125 | 2.0 | 10.0 | 0.00 | 0.00 | 0.00 | 63 | 1009.7 |
| 20260903035046 | 88 | 199 | 3.0 | 10.0 | 0.00 | 0.00 | 0.00 | 62 | 1009.8 |
| 20260903034546 | 88 | 115 | 3.0 | 9.0 | 0.00 | 0.00 | 0.00 | 62 | 1009.7 |
| 20260903034049 | 88 | 117 | 1.0 | 9.0 | 0.00 | 0.00 | 0.00 | 61 | 1009.6 |
| 20260903033547 | 89 | 50 | 2.0 | 8.0 | 0.00 | 0.00 | 0.00 | 61 | 1009.6 |
| 20260903033045 | 89 | 151 | 3.0 | 9.0 | 0.00 | 0.00 | 0.00 | 60 | 1009.4 |
| 20260903032545 | 89 | 146 | 3.0 | 9.0 | 0.00 | 0.00 | 0.00 | 60 | 1009.4 |
| 20260903032045 | 90 | 167 | 3.0 | 9.0 | 0.00 | 0.00 | 0.00 | 59 | 1009.3 |
| 20260903031545 | 90 | 143 | 3.0 | 9.0 | 0.00 | 0.00 | 0.00 | 59 | 1009.2 |
| 20260903031046 | 90 | 117 | 4.0 | 9.0 | 0.00 | 0.00 | 0.00 | 59 | 1009.1 |
| 20260903030544 | 90 | 123 | 2.0 | 9.0 | 0.00 | 0.00 | 0.00 | 58 | 1009.0 |
| 20260903030047 | 91 | 117 | 2.0 | 9.0 | 0.00 | 0.00 | 0.00 | 57 | 1008.9 |
| 20260903025546 | 91 | 105 | 1.0 | 6.0 | 0.00 | 0.00 | 0.00 | 55 | 1008.9 |
| 20260903025044 | 91 | 159 | 2.0 | 6.0 | 0.00 | 0.00 | 0.00 | 53 | 1008.8 |
| 20260903024544 | 91 | 98 | 1.0 | 11.0 | 0.00 | 0.00 | 0.00 | 53 | 1008.7 |
| 20260903024043 | 92 | 5 | 3.0 | 11.0 | 0.00 | 0.00 | 0.00 | 53 | 1008.5 |
| 20260903023544 | 92 | 98 | 5.0 | 10.0 | 0.00 | 0.00 | 0.00 | 51 | 1008.4 |
| 20260903023044 | 93 | 148 | 3.0 | 10.0 | 0.00 | 0.00 | 0.00 | 49 | 1008.4 |
| 20260903022544 | 93 | 126 | 3.0 | 10.0 | 0.00 | 0.00 | 0.00 | 46 | 1008.3 |
| 20260903022043 | 93 | 136 | 2.0 | 6.0 | 0.00 | 0.00 | 0.00 | 44 | 1008.2 |
| 20260903021546 | 93 | 155 | 1.0 | 5.0 | 0.00 | 0.00 | 0.00 | 44 | 1008.0 |
| 20260903021043 | 93 | 161 | 0.0 | 2.0 | 0.00 | 0.00 | 0.00 | 43 | 1007.9 |
| 20260903020546 | 93 | 161 | 0.0 | 2.0 | 0.00 | 0.00 | 0.00 | 43 | 1007.9 |
| 20260903020046 | 93 | 161 | 0.0 | 2.0 | 0.00 | 0.00 | 0.00 | 42 | 1007.9 |
| 20260903015542 | 94 | 161 | 0.0 | 2.0 | 0.00 | 0.00 | 0.00 | 42 | 1007.8 |
| 20260903015044 | 94 | 161 | 0.0 | 2.0 | 0.00 | 0.00 | 0.00 | 42 | 1007.7 |
| 20260903014549 | 94 | 163 | 0.0 | 3.0 | 0.00 | 0.00 | 0.00 | 42 | 1007.6 |
| 20260903014042 | 94 | 163 | 1.0 | 3.0 | 0.00 | 0.00 | 0.00 | 42 | 1007.6 |
| 20260903013544 | 94 | 163 | 0.0 | 2.0 | 0.00 | 0.00 | 0.00 | 42 | 1007.6 |
| 20260903013042 | 95 | 163 | 0.0 | 2.0 | 0.00 | 0.00 | 0.00 | 41 | 1007.6 |
| 20260903012541 | 95 | 163 | 1.0 | 3.0 | 0.00 | 0.00 | 0.00 | 41 | 1007.6 |
| 20260903012041 | 95 | 163 | 0.0 | 3.0 | 0.00 | 0.00 | 0.00 | 41 | 1007.5 |
| 20260903011556 | 95 | 163 | 1.0 | 3.0 | 0.00 | 0.00 | 0.00 | 41 | 1007.5 |
| 20260903011041 | 96 | 163 | 2.0 | 4.0 | 0.00 | 0.00 | 0.00 | 40 | 1007.4 |
| 20260903010540 | 96 | 169 | 1.0 | 5.0 | 0.00 | 0.00 | 0.00 | 39 | 1007.3 |
| 20260903010041 | 96 | 161 | 1.0 | 5.0 | 0.00 | 0.00 | 0.00 | 39 | 1007.4 |
| 20260903005641 | 96 | 170 | 2.0 | 5.0 | 0.00 | 0.00 | 0.00 | 38 | 1007.3 |
| 20260903005042 | 97 | 150 | 2.0 | 6.0 | 0.00 | 0.00 | 0.00 | 38 | 1007.3 |
| 20260903004541 | 97 | 157 | 2.0 | 6.0 | 0.00 | 0.00 | 0.00 | 38 | 1007.3 |
| 20260903004040 | 97 | 169 | 3.0 | 6.0 | 0.00 | 0.00 | 0.00 | 37 | 1007.5 |
| 20260903003540 | 98 | 165 | 3.0 | 6.0 | 0.00 | 0.00 | 0.00 | 37 | 1007.4 |
| 20260903003042 | 98 | 179 | 2.0 | 5.0 | 0.00 | 0.00 | 0.00 | 36 | 1007.3 |
| 20260903002541 | 98 | 127 | 0.0 | 8.0 | 0.00 | 0.00 | 0.00 | 37 | 1007.4 |
| 20260903002042 | 98 | 152 | 2.0 | 8.0 | 0.00 | 0.00 | 0.00 | 36 | 1007.3 |
| 20260903001537 | 98 | 178 | 2.0 | 8.0 | 0.00 | 0.00 | 0.00 | 37 | 1007.4 |
| 20260903001037 | 99 | 116 | 1.0 | 8.0 | 0.00 | 0.00 | 0.00 | 36 | 1007.4 |
| 20260903000537 | 99 | 139 | 4.0 | 10.0 | 0.00 | 0.00 | 0.00 | 36 | 1007.5 |
| 20260903000037 | 99 | 178 | 3.0 | 10.0 | 0.00 | 0.00 | 0.00 | 36 | 1007.5 |
| 20260902235540 | 99 | 94 | 2.0 | 6.0 | 0.00 | 0.00 | 0.00 | 36 | 1007.5 |
| 20260902235037 | 100 | 152 | 0.0 | 7.0 | 0.00 | 0.00 | 0.00 | 37 | 1007.5 |
| 20260902234541 | 100 | 186 | 3.0 | 7.0 | 0.00 | 0.00 | 0.00 | 36 | 1007.5 |
| 20260902234039 | 100 | 105 | 2.0 | 6.0 | 0.00 | 0.00 | 0.00 | 36 | 1007.5 |
| 20260902233537 | 100 | 328 | 1.0 | 7.0 | 0.00 | 0.00 | 0.00 | 36 | 1007.5 |
| 20260902233043 | 100 | 163 | 1.0 | 7.0 | 0.00 | 0.00 | 0.00 | 36 | 1007.5 |
| 20260902232536 | 101 | 150 | 1.0 | 5.0 | 0.00 | 0.00 | 0.00 | 36 | 1007.6 |
| 20260902232036 | 100 | 165 | 0.0 | 9.0 | 0.00 | 0.00 | 0.00 | 36 | 1007.6 |
| 20260902231549 | 100 | 57 | 3.0 | 9.0 | 0.00 | 0.00 | 0.00 | 36 | 1007.5 |
| 20260902231035 | 101 | 80 | 2.0 | 7.0 | 0.00 | 0.00 | 0.00 | 36 | 1007.6 |
| 20260902230535 | 101 | 215 | 0.0 | 8.0 | 0.00 | 0.00 | 0.00 | 34 | 1007.6 |
| 20260902230035 | 101 | 210 | 2.0 | 8.0 | 0.00 | 0.00 | 0.00 | 35 | 1007.6 |
| 20260902225534 | 103 | 185 | 1.0 | 5.0 | 0.00 | 0.00 | 0.00 | 34 | 1007.6 |
| 20260902225034 | 102 | 180 | 2.0 | 5.0 | 0.00 | 0.00 | 0.00 | 34 | 1007.6 |
| 20260902224539 | 101 | 126 | 1.0 | 6.0 | 0.00 | 0.00 | 0.00 | 34 | 1007.6 |
| 20260902224033 | 101 | 128 | 2.0 | 10.0 | 0.00 | 0.00 | 0.00 | 34 | 1007.6 |
| 20260902223533 | 101 | 103 | 4.0 | 10.0 | 0.00 | 0.00 | 0.00 | 35 | 1007.6 |
| 20260902223033 | 102 | 134 | 0.0 | 6.0 | 0.00 | 0.00 | 0.00 | 34 | 1007.7 |
| 20260902222536 | 102 | 300 | 2.0 | 6.0 | 0.00 | 0.00 | 0.00 | 35 | 1007.7 |
| 20260902222032 | 101 | 112 | 2.0 | 9.0 | 0.00 | 0.00 | 0.00 | 35 | 1007.8 |
| 20260902221534 | 102 | 213 | 1.0 | 9.0 | 0.00 | 0.00 | 0.00 | 35 | 1007.7 |
| 20260902221032 | 101 | 88 | 3.0 | 9.0 | 0.00 | 0.00 | 0.00 | 35 | 1007.7 |
| 20260902220530 | 101 | 109 | 4.0 | 7.0 | 0.00 | 0.00 | 0.00 | 35 | 1007.8 |
| 20260902220030 | 101 | 9 | 2.0 | 5.0 | 0.00 | 0.00 | 0.00 | 34 | 1007.8 |
| 20260902215529 | 103 | 5 | 1.0 | 3.0 | 0.00 | 0.00 | 0.00 | 31 | 1007.9 |
| 20260902215030 | 102 | 183 | 1.0 | 4.0 | 0.00 | 0.00 | 0.00 | 33 | 1007.9 |
| 20260902214530 | 103 | 95 | 1.0 | 4.0 | 0.00 | 0.00 | 0.00 | 32 | 1007.9 |
| 20260902214027 | 103 | 316 | 1.0 | 5.0 | 0.00 | 0.00 | 0.00 | 33 | 1008.0 |
| 20260902213526 | 102 | 210 | 2.0 | 10.0 | 0.00 | 0.00 | 0.00 | 33 | 1008.0 |
| 20260902213026 | 100 | 245 | 1.0 | 10.0 | 0.00 | 0.00 | 0.00 | 35 | 1008.1 |
| 20260902212527 | 101 | 191 | 2.0 | 6.0 | 0.00 | 0.00 | 0.00 | 35 | 1008.1 |
| 20260902212024 | 102 | 155 | 3.0 | 7.0 | 0.00 | 0.00 | 0.00 | 34 | 1008.2 |
| 20260902211529 | 102 | 196 | 2.0 | 6.0 | 0.00 | 0.00 | 0.00 | 34 | 1008.2 |
| 20260902211025 | 102 | 5 | 1.0 | 6.0 | 0.00 | 0.00 | 0.00 | 34 | 1008.3 |
| 20260902210522 | 102 | 158 | 0.0 | 6.0 | 0.00 | 0.00 | 0.00 | 35 | 1008.4 |
| 20260902210022 | 101 | 218 | 2.0 | 8.0 | 0.00 | 0.00 | 0.00 | 35 | 1008.4 |
| 20260902205520 | 101 | 221 | 3.0 | 9.0 | 0.00 | 0.00 | 0.00 | 36 | 1008.5 |
| 20260902205020 | 101 | 244 | 3.0 | 9.0 | 0.00 | 0.00 | 0.00 | 36 | 1008.6 |
| 20260902204520 | 101 | 202 | 2.0 | 11.0 | 0.00 | 0.00 | 0.00 | 37 | 1008.7 |
| 20260902204019 | 101 | 241 | 5.0 | 11.0 | 0.00 | 0.00 | 0.00 | 37 | 1008.8 |
| 20260902203518 | 101 | 250 | 5.0 | 8.0 | 0.00 | 0.00 | 0.00 | 36 | 1008.8 |
| 20260902203018 | 102 | 153 | 2.0 | 5.0 | 0.00 | 0.00 | 0.00 | 36 | 1008.9 |
| 20260902202517 | 102 | 355 | 2.0 | 8.0 | 0.00 | 0.00 | 0.00 | 36 | 1008.9 |
| 20260902202016 | 102 | 321 | 3.0 | 8.0 | 0.00 | 0.00 | 0.00 | 35 | 1009.0 |
| 20260902201514 | 100 | 207 | 2.0 | 8.0 | 0.00 | 0.00 | 0.00 | 37 | 1009.1 |
| 20260902201016 | 100 | 161 | 1.0 | 11.0 | 0.00 | 0.00 | 0.00 | 39 | 1009.3 |
| 20260902200515 | 99 | 155 | 4.0 | 11.0 | 0.00 | 0.00 | 0.00 | 39 | 1009.4 |
| 20260902200011 | 99 | 202 | 3.0 | 8.0 | 0.00 | 0.00 | 0.00 | 39 | 1009.5 |
| 20260902195511 | 99 | 120 | 4.0 | 9.0 | 0.00 | 0.00 | 0.00 | 40 | 1009.7 |
| 20260902195010 | 98 | 206 | 3.0 | 9.0 | 0.00 | 0.00 | 0.00 | 41 | 1009.8 |
| 20260902194512 | 99 | 236 | 3.0 | 8.0 | 0.00 | 0.00 | 0.00 | 39 | 1009.8 |
| 20260902194009 | 100 | 171 | 2.0 | 8.0 | 0.00 | 0.00 | 0.00 | 39 | 1009.9 |
| 20260902193509 | 100 | 215 | 1.0 | 8.0 | 0.00 | 0.00 | 0.00 | 41 | 1009.9 |
| 20260902193009 | 97 | 245 | 3.0 | 8.0 | 0.00 | 0.00 | 0.00 | 43 | 1010.0 |
| 20260902192506 | 97 | 224 | 0.0 | 5.0 | 0.00 | 0.00 | 0.00 | 43 | 1010.1 |
| 20260902192006 | 97 | 225 | 2.0 | 5.0 | 0.00 | 0.00 | 0.00 | 43 | 1010.2 |
| 20260902191508 | 98 | 241 | 2.0 | 4.0 | 0.00 | 0.00 | 0.00 | 42 | 1010.2 |
| 20260902191005 | 97 | 9 | 0.0 | 3.0 | 0.00 | 0.00 | 0.00 | 44 | 1010.4 |
| 20260902190508 | 98 | 215 | 1.0 | 7.0 | 0.00 | 0.00 | 0.00 | 42 | 1010.5 |
| 20260902190004 | 98 | 209 | 3.0 | 7.0 | 0.00 | 0.00 | 0.00 | 43 | 1010.5 |
| 20260902185503 | 98 | 230 | 1.0 | 7.0 | 0.00 | 0.00 | 0.00 | 44 | 1010.5 |
| 20260902185002 | 97 | 77 | 2.0 | 8.0 | 0.00 | 0.00 | 0.00 | 43 | 1010.6 |
| 20260902184502 | 97 | 265 | 3.0 | 8.0 | 0.00 | 0.00 | 0.00 | 42 | 1010.7 |
| 20260902184059 | 97 | 223 | 3.0 | 7.0 | 0.00 | 0.00 | 0.00 | 42 | 1010.8 |
| 20260902183558 | 98 | 173 | 4.0 | 10.0 | 0.00 | 0.00 | 0.00 | 41 | 1010.9 |
| 20260902183058 | 97 | 86 | 4.0 | 11.0 | 0.00 | 0.00 | 0.00 | 44 | 1011.0 |
| 20260902182556 | 98 | 244 | 5.0 | 11.0 | 0.00 | 0.00 | 0.00 | 42 | 1011.2 |
| 20260902182055 | 97 | 58 | 2.0 | 7.0 | 0.00 | 0.00 | 0.00 | 44 | 1011.2 |
| 20260902181555 | 98 | 195 | 2.0 | 7.0 | 0.00 | 0.00 | 0.00 | 44 | 1011.2 |
| 20260902181054 | 99 | 151 | 2.0 | 4.0 | 0.00 | 0.00 | 0.00 | 43 | 1011.3 |
| 20260902180552 | 99 | 214 | 0.0 | 7.0 | 0.00 | 0.00 | 0.00 | 44 | 1011.4 |
| 20260902180122 | 97 | 155 | 2.0 | 10.0 | 0.00 | 0.00 | 0.00 | 45 | 1011.7 |
| 20260902175551 | 96 | 198 | 4.0 | 10.0 | 0.00 | 0.00 | 0.00 | 47 | 1011.7 |
| 20260902175052 | 96 | 264 | 3.0 | 7.0 | 0.00 | 0.00 | 0.00 | 47 | 1011.8 |
| 20260902174549 | 95 | 336 | 3.0 | 5.0 | 0.00 | 0.00 | 0.00 | 48 | 1011.8 |
| 20260902174052 | 96 | 111 | 2.0 | 5.0 | 0.00 | 0.00 | 0.00 | 47 | 1012.0 |
| 20260902173550 | 96 | 138 | 1.0 | 5.0 | 0.00 | 0.00 | 0.00 | 49 | 1012.1 |
| 20260902173048 | 95 | 142 | 1.0 | 9.0 | 0.00 | 0.00 | 0.00 | 48 | 1012.1 |
| 20260902172548 | 96 | 180 | 1.0 | 7.0 | 0.00 | 0.00 | 0.00 | 49 | 1012.1 |
| 20260902172044 | 94 | 121 | 2.0 | 9.0 | 0.00 | 0.00 | 0.00 | 50 | 1012.2 |
| 20260902171542 | 94 | 136 | 1.0 | 8.0 | 0.00 | 0.00 | 0.00 | 53 | 1012.3 |
| 20260902171042 | 94 | 216 | 2.0 | 8.0 | 0.00 | 0.00 | 0.00 | 54 | 1012.3 |
| 20260902170540 | 93 | 181 | 3.0 | 7.0 | 0.00 | 0.00 | 0.00 | 55 | 1012.5 |
| 20260902170040 | 93 | 285 | 1.0 | 8.0 | 0.00 | 0.00 | 0.00 | 55 | 1012.5 |
| 20260902165537 | 92 | 269 | 2.0 | 9.0 | 0.00 | 0.00 | 0.00 | 57 | 1012.6 |
| 20260902165036 | 91 | 176 | 4.0 | 9.0 | 0.00 | 0.00 | 0.00 | 57 | 1012.7 |
| 20260902164534 | 91 | 221 | 2.0 | 8.0 | 0.00 | 0.00 | 0.00 | 59 | 1012.7 |
| 20260902164033 | 90 | 207 | 2.0 | 6.0 | 0.00 | 0.00 | 0.00 | 59 | 1012.7 |
| 20260902163533 | 90 | 139 | 3.0 | 7.0 | 0.00 | 0.00 | 0.00 | 59 | 1012.7 |
| 20260902163029 | 90 | 157 | 2.0 | 7.0 | 0.00 | 0.00 | 0.00 | 60 | 1012.7 |
| 20260902162528 | 89 | 148 | 3.0 | 8.0 | 0.00 | 0.00 | 0.00 | 62 | 1012.7 |
| 20260902162025 | 89 | 234 | 3.0 | 8.0 | 0.00 | 0.00 | 0.00 | 62 | 1012.7 |
| 20260902161528 | 88 | 213 | 2.0 | 8.0 | 0.00 | 0.00 | 0.00 | 63 | 1012.7 |
| 20260902161023 | 88 | 188 | 3.0 | 8.0 | 0.00 | 0.00 | 0.00 | 63 | 1012.8 |
| 20260902160522 | 88 | 198 | 4.0 | 8.0 | 0.00 | 0.00 | 0.00 | 63 | 1012.8 |
| 20260902160020 | 88 | 175 | 2.0 | 6.0 | 0.00 | 0.00 | 0.00 | 64 | 1012.8 |
| 20260902155521 | 88 | 202 | 4.0 | 7.0 | 0.00 | 0.00 | 0.00 | 65 | 1012.7 |
| 20260902155019 | 87 | 209 | 4.0 | 12.0 | 0.00 | 0.00 | 0.00 | 65 | 1012.8 |
| 20260902154525 | 87 | 247 | 5.0 | 9.0 | 0.00 | 0.00 | 0.00 | 65 | 1012.8 |
| 20260902154015 | 87 | 219 | 4.0 | 8.0 | 0.00 | 0.00 | 0.00 | 66 | 1012.8 |
| 20260902153517 | 87 | 225 | 2.0 | 7.0 | 0.00 | 0.00 | 0.00 | 68 | 1012.8 |
| 20260902153013 | 86 | 213 | 3.0 | 7.0 | 0.00 | 0.00 | 0.00 | 69 | 1012.7 |
| 20260902152511 | 86 | 192 | 3.0 | 7.0 | 0.00 | 0.00 | 0.00 | 69 | 1012.8 |
| 20260902152009 | 85 | 212 | 3.0 | 7.0 | 0.00 | 0.00 | 0.00 | 70 | 1012.7 |
| 20260902151508 | 85 | 219 | 3.0 | 9.0 | 0.00 | 0.00 | 0.00 | 71 | 1012.9 |
| 20260902151006 | 84 | 240 | 4.0 | 10.0 | 0.00 | 0.00 | 0.00 | 72 | 1012.8 |
| 20260902150505 | 84 | 221 | 3.0 | 10.0 | 0.00 | 0.00 | 0.00 | 72 | 1012.8 |
| 20260902150005 | 83 | 257 | 3.0 | 10.0 | 0.00 | 0.00 | 0.00 | 73 | 1012.8 |
| 20260902145504 | 83 | 226 | 4.0 | 11.0 | 0.00 | 0.00 | 0.00 | 74 | 1012.9 |
| 20260902145004 | 83 | 205 | 6.0 | 11.0 | 0.00 | 0.00 | 0.00 | 74 | 1013.0 |
| 20260902144502 | 83 | 216 | 4.0 | 9.0 | 0.00 | 0.00 | 0.00 | 74 | 1012.9 |
| 20260902144002 | 83 | 211 | 3.0 | 8.0 | 0.00 | 0.00 | 0.00 | 75 | 1012.9 |
| 20260902143501 | 82 | 236 | 3.0 | 8.0 | 0.00 | 0.00 | 0.00 | 76 | 1013.0 |
| 20260902143107 | 82 | 220 | 4.0 | 10.0 | 0.00 | 0.00 | 0.00 | 76 | 1013.0 |
| 20260902142600 | 82 | 246 | 4.0 | 10.0 | 0.00 | 0.00 | 0.00 | 77 | 1013.0 |
| 20260902142057 | 82 | 246 | 3.0 | 7.0 | 0.00 | 0.00 | 0.00 | 78 | 1013.0 |
| 20260902141557 | 81 | 240 | 1.0 | 6.0 | 0.00 | 0.00 | 0.00 | 79 | 1012.9 |
| 20260902141056 | 81 | 143 | 3.0 | 8.0 | 0.00 | 0.00 | 0.00 | 79 | 1012.9 |
| 20260902140558 | 81 | 157 | 3.0 | 7.0 | 0.00 | 0.00 | 0.00 | 79 | 1012.9 |
| 20260902140056 | 80 | 196 | 3.0 | 7.0 | 0.00 | 0.00 | 0.00 | 80 | 1012.9 |
| 20260902135554 | 80 | 230 | 3.0 | 6.0 | 0.00 | 0.00 | 0.00 | 80 | 1012.9 |
| 20260902135054 | 80 | 144 | 3.0 | 7.0 | 0.00 | 0.00 | 0.00 | 81 | 1013.0 |
| 20260902134553 | 80 | 211 | 2.0 | 6.0 | 0.00 | 0.00 | 0.00 | 81 | 1012.9 |
| 20260902134051 | 79 | 205 | 2.0 | 5.0 | 0.00 | 0.00 | 0.00 | 82 | 1012.8 |
| 20260902133551 | 79 | 149 | 2.0 | 4.0 | 0.00 | 0.00 | 0.00 | 82 | 1012.8 |
| 20260902133050 | 79 | 129 | 1.0 | 4.0 | 0.00 | 0.00 | 0.00 | 82 | 1012.8 |
| 20260902132550 | 79 | 200 | 1.0 | 5.0 | 0.00 | 0.00 | 0.00 | 83 | 1012.8 |
| 20260902132049 | 79 | 213 | 2.0 | 5.0 | 0.00 | 0.00 | 0.00 | 83 | 1012.7 |
| 20260902131547 | 78 | 238 | 2.0 | 4.0 | 0.00 | 0.00 | 0.00 | 83 | 1012.7 |
| 20260902131047 | 78 | 186 | 0.0 | 4.0 | 0.00 | 0.00 | 0.00 | 83 | 1012.7 |
| 20260902130550 | 78 | 186 | 2.0 | 4.0 | 0.00 | 0.00 | 0.00 | 83 | 1012.7 |
| 20260902130051 | 78 | 186 | 1.0 | 4.0 | 0.00 | 0.00 | 0.00 | 83 | 1012.7 |
| 20260902125544 | 78 | 187 | 1.0 | 3.0 | 0.00 | 0.00 | 0.00 | 83 | 1012.6 |
| 20260902125047 | 78 | 197 | 1.0 | 3.0 | 0.00 | 0.00 | 0.00 | 83 | 1012.5 |
| 20260902124543 | 77 | 197 | 0.0 | 2.0 | 0.00 | 0.00 | 0.00 | 83 | 1012.4 |
| 20260902124043 | 77 | 196 | 0.0 | 2.0 | 0.00 | 0.00 | 0.00 | 83 | 1012.3 |
| 20260902123538 | 77 | 197 | 0.0 | 3.0 | 0.00 | 0.00 | 0.00 | 83 | 1012.2 |
| 20260902123043 | 77 | 197 | 1.0 | 3.0 | 0.00 | 0.00 | 0.00 | 83 | 1012.2 |
| 20260902122542 | 77 | 197 | 0.0 | 3.0 | 0.00 | 0.00 | 0.00 | 83 | 1012.1 |
| 20260902122036 | 77 | 197 | 0.0 | 3.0 | 0.00 | 0.00 | 0.00 | 83 | 1012.1 |
| 20260902121536 | 77 | 216 | 0.0 | 3.0 | 0.00 | 0.00 | 0.00 | 83 | 1012.1 |
| 20260902121036 | 77 | 213 | 0.0 | 2.0 | 0.00 | 0.00 | 0.00 | 82 | 1012.0 |
| 20260902120537 | 77 | 213 | 0.0 | 3.0 | 0.00 | 0.00 | 0.00 | 82 | 1012.0 |
| 20260902120037 | 77 | 211 | 0.0 | 3.0 | 0.00 | 0.00 | 0.00 | 82 | 1012.0 |
| 20260902115537 | 77 | 195 | 1.0 | 3.0 | 0.00 | 0.00 | 0.00 | 82 | 1012.1 |
| 20260902115035 | 77 | 227 | 0.0 | 5.0 | 0.00 | 0.00 | 0.00 | 82 | 1012.0 |
| 20260902114539 | 78 | 209 | 1.0 | 5.0 | 0.00 | 0.00 | 0.00 | 82 | 1011.9 |
| 20260902114037 | 78 | 205 | 1.0 | 5.0 | 0.00 | 0.00 | 0.00 | 82 | 1011.9 |
| 20260902113535 | 78 | 181 | 2.0 | 4.0 | 0.00 | 0.00 | 0.00 | 82 | 1011.9 |
| 20260902113041 | 78 | 173 | 2.0 | 5.0 | 0.00 | 0.00 | 0.00 | 82 | 1011.9 |
| 20260902112535 | 78 | 194 | 2.0 | 5.0 | 0.00 | 0.00 | 0.00 | 82 | 1011.9 |
| 20260902112034 | 78 | 186 | 1.0 | 5.0 | 0.00 | 0.00 | 0.00 | 82 | 1011.9 |
| 20260902111534 | 78 | 204 | 1.0 | 5.0 | 0.00 | 0.00 | 0.00 | 81 | 1011.8 |
| 20260902111033 | 78 | 213 | 1.0 | 5.0 | 0.00 | 0.00 | 0.00 | 81 | 1011.9 |
| 20260902110533 | 78 | 182 | 2.0 | 5.0 | 0.00 | 0.00 | 0.00 | 81 | 1011.8 |
| 20260902110043 | 78 | 202 | 1.0 | 5.0 | 0.00 | 0.00 | 0.00 | 81 | 1011.8 |
| 20260902105532 | 78 | 200 | 1.0 | 5.0 | 0.00 | 0.00 | 0.00 | 81 | 1011.9 |
| 20260902105032 | 78 | 180 | 1.0 | 5.0 | 0.00 | 0.00 | 0.00 | 80 | 1011.9 |
| 20260902104538 | 78 | 211 | 2.0 | 4.0 | 0.00 | 0.00 | 0.00 | 80 | 1011.8 |
| 20260902104031 | 78 | 201 | 2.0 | 4.0 | 0.00 | 0.00 | 0.00 | 80 | 1011.8 |
| 20260902103535 | 78 | 207 | 2.0 | 4.0 | 0.00 | 0.00 | 0.00 | 79 | 1011.8 |
| 20260902103037 | 78 | 175 | 1.0 | 4.0 | 0.00 | 0.00 | 0.00 | 79 | 1011.8 |
| 20260902102531 | 78 | 201 | 1.0 | 4.0 | 0.00 | 0.00 | 0.00 | 79 | 1011.7 |
| 20260902102030 | 78 | 205 | 0.0 | 5.0 | 0.00 | 0.00 | 0.00 | 78 | 1011.7 |
| 20260902101531 | 78 | 197 | 1.0 | 5.0 | 0.00 | 0.00 | 0.00 | 78 | 1011.7 |
| 20260902101029 | 78 | 213 | 2.0 | 5.0 | 0.00 | 0.00 | 0.00 | 77 | 1011.8 |
| 20260902100529 | 78 | 190 | 1.0 | 3.0 | 0.00 | 0.00 | 0.00 | 77 | 1011.8 |
| 20260902100029 | 78 | 190 | 0.0 | 2.0 | 0.00 | 0.00 | 0.00 | 77 | 1011.8 |
| 20260902095528 | 78 | 190 | 0.0 | 3.0 | 0.00 | 0.00 | 0.00 | 77 | 1011.8 |
| 20260902095028 | 78 | 190 | 0.0 | 3.0 | 0.00 | 0.00 | 0.00 | 77 | 1011.9 |
| 20260902094528 | 78 | 190 | 1.0 | 3.0 | 0.00 | 0.00 | 0.00 | 76 | 1011.8 |
| 20260902094028 | 78 | 154 | 0.0 | 2.0 | 0.00 | 0.00 | 0.00 | 76 | 1011.9 |
| 20260902093527 | 78 | 154 | 0.0 | 2.0 | 0.00 | 0.00 | 0.00 | 76 | 1012.0 |
| 20260902093026 | 78 | 154 | 0.0 | 2.0 | 0.00 | 0.00 | 0.00 | 76 | 1012.0 |
| 20260902092527 | 79 | 154 | 0.0 | 3.0 | 0.00 | 0.00 | 0.00 | 76 | 1012.1 |
| 20260902092028 | 79 | 154 | 1.0 | 3.0 | 0.00 | 0.00 | 0.00 | 75 | 1012.1 |
| 20260902091525 | 79 | 154 | 0.0 | 3.0 | 0.00 | 0.00 | 0.00 | 75 | 1012.0 |
| 20260902091026 | 79 | 154 | 1.0 | 3.0 | 0.00 | 0.00 | 0.00 | 75 | 1012.0 |
| 20260902090524 | 79 | 154 | 1.0 | 3.0 | 0.00 | 0.00 | 0.00 | 75 | 1012.0 |
| 20260902090025 | 79 | 154 | 1.0 | 3.0 | 0.00 | 0.00 | 0.00 | 74 | 1012.0 |
| 20260902085524 | 79 | 154 | 0.0 | 3.0 | 0.00 | 0.00 | 0.00 | 74 | 1012.1 |
| 20260902085024 | 79 | 154 | 0.0 | 3.0 | 0.00 | 0.00 | 0.00 | 74 | 1012.0 |
| 20260902084526 | 79 | 154 | 1.0 | 3.0 | 0.00 | 0.00 | 0.00 | 74 | 1012.0 |
| 20260902084024 | 79 | 154 | 0.0 | 2.0 | 0.00 | 0.00 | 0.00 | 73 | 1012.1 |
| 20260902083523 | 79 | 154 | 0.0 | 2.0 | 0.00 | 0.00 | 0.00 | 73 | 1012.1 |
| 20260902083021 | 79 | 154 | 0.0 | 2.0 | 0.00 | 0.00 | 0.00 | 73 | 1012.0 |
| 20260902082521 | 80 | 154 | 0.0 | 2.0 | 0.00 | 0.00 | 0.00 | 72 | 1012.1 |
| 20260902082020 | 80 | 154 | 0.0 | 2.0 | 0.00 | 0.00 | 0.00 | 72 | 1012.1 |
| 20260902081519 | 80 | 154 | 0.0 | 3.0 | 0.00 | 0.00 | 0.00 | 72 | 1012.1 |
| 20260902081019 | 80 | 154 | 1.0 | 3.0 | 0.00 | 0.00 | 0.00 | 72 | 1012.1 |
| 20260902080520 | 80 | 153 | 1.0 | 3.0 | 0.00 | 0.00 | 0.00 | 72 | 1012.1 |
| 20260902080018 | 80 | 153 | 1.0 | 3.0 | 0.00 | 0.00 | 0.00 | 71 | 1012.2 |
| 20260902075517 | 80 | 153 | 1.0 | 3.0 | 0.00 | 0.00 | 0.00 | 71 | 1012.1 |
| 20260902075017 | 80 | 153 | 1.0 | 4.0 | 0.00 | 0.00 | 0.00 | 71 | 1012.1 |
| 20260902074517 | 81 | 179 | 1.0 | 6.0 | 0.00 | 0.00 | 0.00 | 70 | 1012.1 |
| 20260902074016 | 81 | 154 | 3.0 | 6.0 | 0.00 | 0.00 | 0.00 | 70 | 1012.2 |
| 20260902073520 | 81 | 173 | 1.0 | 3.0 | 0.00 | 0.00 | 0.00 | 70 | 1012.2 |
| 20260902073015 | 81 | 159 | 1.0 | 5.0 | 0.00 | 0.00 | 0.00 | 70 | 1012.2 |
| 20260902072513 | 81 | 134 | 1.0 | 5.0 | 0.00 | 0.00 | 0.00 | 69 | 1012.1 |
| 20260902072013 | 81 | 156 | 1.0 | 8.0 | 0.00 | 0.00 | 0.00 | 69 | 1012.2 |
| 20260902071513 | 81 | 175 | 2.0 | 8.0 | 0.00 | 0.00 | 0.00 | 69 | 1012.3 |
| 20260902071013 | 81 | 121 | 1.0 | 3.0 | 0.00 | 0.00 | 0.00 | 68 | 1012.2 |
| 20260902070512 | 81 | 152 | 0.0 | 5.0 | 0.00 | 0.00 | 0.00 | 68 | 1012.3 |
| 20260902070013 | 82 | 157 | 0.0 | 5.0 | 0.00 | 0.00 | 0.00 | 68 | 1012.3 |
| 20260902065510 | 82 | 160 | 0.0 | 5.0 | 0.00 | 0.00 | 0.00 | 67 | 1012.2 |
| 20260902065011 | 82 | 160 | 0.0 | 3.0 | 0.00 | 0.00 | 0.00 | 67 | 1012.1 |
| 20260902064510 | 82 | 173 | 0.0 | 6.0 | 0.00 | 0.00 | 0.00 | 67 | 1012.2 |
| 20260902064010 | 82 | 155 | 1.0 | 4.0 | 0.00 | 0.00 | 0.00 | 67 | 1012.1 |
| 20260902063509 | 82 | 91 | 0.0 | 2.0 | 0.00 | 0.00 | 0.00 | 66 | 1012.1 |
| 20260902063010 | 82 | 91 | 0.0 | 1.0 | 0.00 | 0.00 | 0.00 | 66 | 1012.2 |
| 20260902062508 | 82 | 91 | 0.0 | 2.0 | 0.00 | 0.00 | 0.00 | 66 | 1012.2 |
| 20260902062006 | 82 | 91 | 0.0 | 3.0 | 0.00 | 0.00 | 0.00 | 65 | 1012.1 |
| 20260902061506 | 82 | 168 | 0.0 | 2.0 | 0.00 | 0.00 | 0.00 | 65 | 1012.1 |
| 20260902061007 | 83 | 72 | 0.0 | 2.0 | 0.00 | 0.00 | 0.00 | 65 | 1012.1 |
| 20260902060506 | 83 | 182 | 0.0 | 1.0 | 0.00 | 0.00 | 0.00 | 65 | 1012.0 |
| 20260902060006 | 83 | 182 | 0.0 | 2.0 | 0.00 | 0.00 | 0.00 | 64 | 1012.0 |
| 20260902055509 | 83 | 182 | 0.0 | 3.0 | 0.00 | 0.00 | 0.00 | 64 | 1012.0 |
| 20260902055005 | 83 | 182 | 1.0 | 5.0 | 0.00 | 0.00 | 0.00 | 64 | 1012.0 |
| 20260902054504 | 83 | 144 | 1.0 | 5.0 | 0.00 | 0.00 | 0.00 | 64 | 1011.9 |
| 20260902054001 | 83 | 215 | 0.0 | 5.0 | 0.00 | 0.00 | 0.00 | 63 | 1011.8 |
| 20260902053503 | 83 | 67 | 0.0 | 3.0 | 0.00 | 0.00 | 0.00 | 63 | 1011.8 |
| 20260902053119 | 84 | 67 | 1.0 | 3.0 | 0.00 | 0.00 | 0.00 | 63 | 1011.8 |
| 20260902052604 | 84 | 177 | 0.0 | 4.0 | 0.00 | 0.00 | 0.00 | 63 | 1011.7 |
| 20260902052058 | 84 | 158 | 0.0 | 5.0 | 0.00 | 0.00 | 0.00 | 63 | 1011.7 |
| 20260902051601 | 84 | 155 | 1.0 | 8.0 | 0.00 | 0.00 | 0.00 | 62 | 1011.7 |
| 20260902051100 | 84 | 159 | 3.0 | 8.0 | 0.00 | 0.00 | 0.00 | 62 | 1011.7 |
| 20260902050557 | 84 | 123 | 3.0 | 7.0 | 0.00 | 0.00 | 0.00 | 62 | 1011.7 |